Time,TemperatureF,DewpointF,PressureIn,WindDirection,WindDirectionDegrees,WindSpeedMPH,WindSpeedGustMPH,Humidity,HourlyPrecipIn,Conditions,Clouds,dailyrainin,SoftwareType,DateUTC
2013-03-17 01:00:00,40.0,-99.9,29.24,North,-999,-999.0,-999.0,-999,-99.99,,,-99.99,,2013-03-17 01:00:00,
2013-03-17 01:43:00,40.0,-99.9,29.24,North,-999,-999.0,-999.0,-999,-99.99,,,-99.99,,2013-03-17 01:43:00,
2013-03-17 01:53:00,40.0,-99.9,29.24,North,-999,-999.0,-999.0,-999,-99.99,,,-99.99,,2013-03-17 01:53:00,
2013-03-17 04:00:00,40.0,-99.9,29.20,North,-999,-999.0,-999.0,-999,-99.99,,,-99.99,,2013-03-17 04:00:00,
2013-03-17 04:43:00,40.0,-99.9,29.20,North,-999,-999.0,-999.0,-999,-99.99,,,-99.99,,2013-03-17 04:43:00,
2013-03-17 04:53:00,40.0,-99.9,29.20,North,-999,-999.0,-999.0,-999,-99.99,,,-99.99,,2013-03-17 04:53:00,
2013-03-17 05:00:00,39.0,-99.9,29.20,North,-999,-999.0,-999.0,-999,-99.99,,,-99.99,,2013-03-17 05:00:00,
2013-03-17 05:43:00,39.0,-99.9,29.20,North,-999,-999.0,-999.0,-999,-99.99,,,-99.99,,2013-03-17 05:43:00,
2013-03-17 05:52:00,39.0,-99.9,29.20,North,-999,-999.0,-999.0,-999,-99.99,,,-99.99,,2013-03-17 05:52:00,
2013-03-17 06:00:00,37.0,-99.9,29.19,North,-999,-999.0,-999.0,-999,-99.99,,,-99.99,,2013-03-17 06:00:00,
2013-03-17 06:42:00,37.0,-99.9,29.19,North,-999,-999.0,-999.0,-999,-99.99,,,-99.99,,2013-03-17 06:42:00,
2013-03-17 06:53:00,37.0,-99.9,29.19,North,-999,-999.0,-999.0,-999,-99.99,,,-99.99,,2013-03-17 06:53:00,
2013-03-17 07:00:00,37.0,-99.9,29.19,North,-999,-999.0,-999.0,-999,-99.99,,,-99.99,,2013-03-17 07:00:00,
2013-03-17 07:42:00,37.0,-99.9,29.19,North,-999,-999.0,-999.0,-999,-99.99,,,-99.99,,2013-03-17 07:42:00,
2013-03-17 07:52:00,37.0,-99.9,29.19,North,-999,-999.0,-999.0,-999,-99.99,,,-99.99,,2013-03-17 07:52:00,
2013-03-17 08:00:00,38.0,-99.9,29.18,North,-999,-999.0,-999.0,-999,-99.99,,,-99.99,,2013-03-17 08:00:00,
2013-03-17 08:42:00,38.0,-99.9,29.18,North,-999,-999.0,-999.0,-999,-99.99,,,-99.99,,2013-03-17 08:42:00,
2013-03-17 08:52:00,38.0,-99.9,29.18,North,-999,-999.0,-999.0,-999,-99.99,,,-99.99,,2013-03-17 08:52:00,
2013-03-17 09:00:00,39.0,-99.9,29.18,North,-999,-999.0,-999.0,-999,-99.99,,,-99.99,,2013-03-17 09:00:00,
2013-03-17 09:43:00,39.0,-99.9,29.18,North,-999,-999.0,-999.0,-999,-99.99,,,-99.99,,2013-03-17 09:43:00,
2013-03-17 09:53:00,39.0,-99.9,29.18,North,-999,-999.0,-999.0,-999,-99.99,,,-99.99,,2013-03-17 09:53:00,
2013-03-17 10:00:00,39.0,-99.9,29.18,North,-999,-999.0,-999.0,-999,-99.99,,,-99.99,,2013-03-17 10:00:00,
2013-03-17 10:42:00,39.0,-99.9,29.18,North,-999,-999.0,-999.0,-999,-99.99,,,-99.99,,2013-03-17 10:42:00,
2013-03-17 10:53:00,39.0,-99.9,29.18,North,-999,-999.0,-999.0,-999,-99.99,,,-99.99,,2013-03-17 10:53:00,
2013-03-17 11:00:00,42.0,-99.9,29.18,North,-999,-999.0,-999.0,-999,-99.99,,,-99.99,,2013-03-17 11:00:00,
2013-03-17 11:43:00,42.0,-99.9,29.18,North,-999,-999.0,-999.0,-999,-99.99,,,-99.99,,2013-03-17 11:43:00,
2013-03-17 11:53:00,42.0,-99.9,29.18,North,-999,-999.0,-999.0,-999,-99.99,,,-99.99,,2013-03-17 11:53:00,
2013-03-17 13:00:00,43.0,-99.9,29.17,North,-999,-999.0,-999.0,-999,-99.99,,,-99.99,,2013-03-17 13:00:00,
2013-03-17 13:43:00,43.0,-99.9,29.17,North,-999,-999.0,-999.0,-999,-99.99,,,-99.99,,2013-03-17 13:43:00,
2013-03-17 13:53:00,43.0,-99.9,29.17,North,-999,-999.0,-999.0,-999,-99.99,,,-99.99,,2013-03-17 13:53:00,
2013-03-17 14:00:00,39.0,-99.9,29.16,North,-999,-999.0,-999.0,-999,-99.99,,,-99.99,,2013-03-17 14:00:00,
2013-03-17 14:43:00,39.0,-99.9,29.16,North,-999,-999.0,-999.0,-999,-99.99,,,-99.99,,2013-03-17 14:43:00,
2013-03-17 14:53:00,39.0,-99.9,29.16,North,-999,-999.0,-999.0,-999,-99.99,,,-99.99,,2013-03-17 14:53:00,
2013-03-17 16:00:00,41.0,-99.9,29.15,North,-999,-999.0,-999.0,-999,-99.99,,,-99.99,,2013-03-17 16:00:00,
2013-03-17 16:43:00,41.0,-99.9,29.15,North,-999,-999.0,-999.0,-999,-99.99,,,-99.99,,2013-03-17 16:43:00,
2013-03-17 16:53:00,41.0,-99.9,29.15,North,-999,-999.0,-999.0,-999,-99.99,,,-99.99,,2013-03-17 16:53:00,
2013-03-17 20:00:00,39.0,-99.9,29.17,North,-999,-999.0,-999.0,-999,-99.99,,,-99.99,,2013-03-17 20:00:00,
2013-03-17 20:43:00,39.0,-99.9,29.17,North,-999,-999.0,-999.0,-999,-99.99,,,-99.99,,2013-03-17 20:43:00,
2013-03-17 20:52:00,39.0,-99.9,29.17,North,-999,-999.0,-999.0,-999,-99.99,,,-99.99,,2013-03-17 20:52:00,
2013-03-17 21:00:00,39.0,-99.9,29.17,North,-999,-999.0,-999.0,-999,-99.99,,,-99.99,,2013-03-17 21:00:00,
2013-03-17 21:43:00,39.0,-99.9,29.17,North,-999,-999.0,-999.0,-999,-99.99,,,-99.99,,2013-03-17 21:43:00,
2013-03-17 21:53:00,39.0,-99.9,29.17,North,-999,-999.0,-999.0,-999,-99.99,,,-99.99,,2013-03-17 21:53:00,
2013-03-17 23:00:00,40.0,-99.9,29.20,North,-999,-999.0,-999.0,-999,-99.99,,,-99.99,,2013-03-17 23:00:00,
2013-03-17 23:43:00,40.0,-99.9,29.20,North,-999,-999.0,-999.0,-999,-99.99,,,-99.99,,2013-03-17 23:43:00,
2013-03-17 23:53:00,40.0,-99.9,29.20,North,-999,-999.0,-999.0,-999,-99.99,,,-99.99,,2013-03-17 23:53:00,